Location: Ahausen
(50.4985°N, 8.2722°E)
Time: 03:09:49
(UTC+00:00)

LO-87 - Visible Passes

Search period start: 26 June 2022 00:00
Search period end: 06 July 2022 00:00
Orbit: 454 x 468 km, 97.4° (Epoch: 25 June)

Date Brightness Start Highest point End Pass type
(mag) Time Alt. Az. Time Alt. Az. Time Alt. Az.
26 Jun ? 21:25:36 10° ENE 21:26:31 11° ENE 21:27:26 10° NE visible
26 Jun ? 22:57:40 36° S 22:58:57 77° WSW 23:02:25 10° NNW visible
27 Jun ? 22:25:49 25° SE 22:27:27 43° ENE 22:30:46 10° N visible
27 Jun ? 23:59:42 14° WSW 00:00:40 15° W 00:02:49 10° NW visible
28 Jun ? 21:53:57 13° ESE 21:56:04 20° ENE 21:58:42 10° NNE visible
28 Jun ? 23:27:50 27° SW 23:28:53 33° W 23:32:04 10° NNW visible
29 Jun ? 21:24:09 10° ENE 21:24:49 10° ENE 21:25:28 10° NE visible
29 Jun ? 22:55:57 37° S 22:57:13 82° WSW 23:00:42 10° NNW visible
30 Jun ? 22:24:03 24° SE 22:25:40 41° ENE 22:28:58 10° N visible
30 Jun ? 23:57:55 15° WSW 23:58:51 16° W 00:01:06 10° NW visible
01 Jul ? 21:52:08 12° ESE 21:54:15 20° ENE 21:56:49 10° NNE visible
01 Jul ? 23:26:00 28° SW 23:27:01 35° W 23:30:14 10° NNW visible
02 Jul ? 22:54:04 38° S 22:55:18 87° WSW 22:58:48 10° NNW visible
03 Jul ? 22:22:06 24° ESE 22:23:43 39° ENE 22:26:58 10° N visible
03 Jul ? 23:55:58 16° WSW 23:56:51 17° W 23:59:13 10° NW visible
04 Jul ? 21:50:08 12° ESE 21:52:13 19° ENE 21:54:44 10° NNE visible
04 Jul ? 23:24:00 30° SW 23:24:58 37° W 23:28:14 10° NNW visible
05 Jul ? 22:52:00 39° SSE 22:53:13 88° ENE 22:56:42 10° NNW visible
